Dubuque, IA

6:02 PM CDT on May 24, 2017 (GMT -0500)
Dubuque Regional

Weather History for KDBQ - April, 2013

Change the Weather History Date:

Tuesday, April 9, 2013

  Actual Average Record
Temperature  
Mean Temperature 43 °F 46 °F  
Max Temperature 48 °F 56 °F 82 °F (1887)
Min Temperature 37 °F 35 °F 13 °F (2003)
Degree Days  
Heating Degree Days 22 19  
Month to date heating degree days 215 189  
Since 1 July heating degree days 6638 6500  
Cooling Degree Days 0 0  
Month to date cooling degree days 0 0  
Year to date cooling degree days 0 0  
Moisture  
Dew Point 44 °F    
Average Humidity 96    
Maximum Humidity 100    
Minimum Humidity 92    
Precipitation  
Precipitation 2.70 in 0.12 in 2.70 in (2013)
Month to date precipitation 3.40 0.98  
Year to date precipitation 9.39 6.00  
Snow  
Snow 0.00 in 0.10 in - ()
Month to date snowfall 0.0 1.0  
Since 1 July snowfall 54.5 40.9  
Snow Depth 0.00 in    
Sea Level Pressure  
Sea Level Pressure 29.88 in    
Wind  
Wind Speed 16 mph (NE)    
Max Wind Speed 28 mph    
Max Gust Speed 36 mph    
Visibility 5 miles    
Events Rain , Thunderstorm    
T = Trace of Precipitation, MM = Missing Value Source: NWS Daily Summary

Daily Weather History Graph

Daily Weather History Graph

Search for Another Location

Airport or City:

Trip Planner

Search our weather history database for the weather conditions in past years. The results will help you decide how hot, cold, wet, or windy it might be!

Date:

Astronomy

Apr. 09, 2013 Rise Set
Actual Time 6:31 AM CDT 7:38 PM CDT
Civil Twilight 6:02 AM CDT 8:06 PM CDT
Nautical Twilight 5:28 AM CDT 8:41 PM CDT
Astronomical Twilight 4:52 AM CDT 9:17 PM CDT
Moon 5:54 AM CDT (4/9) 7:14 PM CDT (4/9)
Length of Visible Light 14h 04m
Length of Day
13h 06m
Waning Crescent, 1% of the Moon is Illuminated
Apr 9
Waning Crescent
Apr 10
New
Apr 18
First Quarter
Apr 25
Full
May 2
Last Quarter

Hourly Weather History & Observations

Time (CDT) Temp. Windchill Dew Point Humidity Pressure Visibility Wind Dir Wind Speed Gust Speed Precip Events Conditions
12:53 AM 48.0 °F - 46.9 °F 96% 29.91 in 6.0 mi NE 13.8 mph - N/A   Clear
1:53 AM 46.0 °F 39.9 °F 45.0 °F 96% 29.90 in 5.0 mi NE 13.8 mph - N/A   Clear
2:42 AM 46.4 °F 41.5 °F 44.6 °F 93% 29.90 in 5.0 mi ENE 10.4 mph - N/A   Overcast
2:53 AM 46.0 °F 40.2 °F 45.0 °F 96% 29.89 in 4.0 mi NNE 12.7 mph 19.6 mph 0.00 in Rain Light Rain
3:21 AM 46.4 °F 41.5 °F 44.6 °F 93% 29.88 in 4.0 mi ENE 10.4 mph - 0.02 in Rain , Thunderstorm Light Rain
3:36 AM 46.4 °F 39.5 °F 44.6 °F 93% 29.86 in 3.0 mi ENE 17.3 mph - 0.05 in Rain Rain
3:41 AM 46.4 °F 40.7 °F 44.6 °F 93% 29.87 in 2.5 mi NE 12.7 mph - 0.07 in Rain Rain
3:53 AM 45.0 °F 38.5 °F 45.0 °F 100% 29.88 in 3.0 mi NE 13.8 mph - 0.09 in Rain Rain
3:59 AM 44.6 °F 39.2 °F 44.6 °F 100% 29.88 in 2.5 mi NE 10.4 mph 19.6 mph 0.01 in Rain Rain
4:08 AM 44.6 °F 38.8 °F 44.6 °F 100% 29.88 in 1.8 mi NE 11.5 mph - 0.04 in Rain , Thunderstorm Rain
4:18 AM 44.6 °F 38.1 °F 44.6 °F 100% 29.88 in 1.8 mi ENE 13.8 mph - 0.07 in Rain , Thunderstorm Thunderstorms and Rain
4:27 AM 44.6 °F 41.4 °F 44.6 °F 100% 29.90 in 2.5 mi ENE 5.8 mph - 0.10 in Rain , Thunderstorm Thunderstorms and Rain
4:41 AM 44.6 °F 41.4 °F 44.6 °F 100% 29.91 in 1.2 mi NE 5.8 mph - 0.24 in Rain , Thunderstorm Heavy Thunderstorms and Rain
4:53 AM 44.1 °F 37.4 °F 44.1 °F 100% 29.90 in 1.0 mi NE 13.8 mph - 0.51 in Rain , Thunderstorm Heavy Thunderstorms and Rain
5:03 AM 44.6 °F 36.9 °F 44.6 °F 100% 29.85 in 2.5 mi ENE 18.4 mph - 0.05 in Rain , Thunderstorm Rain
5:10 AM 44.6 °F 37.8 °F 44.6 °F 100% 29.85 in 3.0 mi NE 15.0 mph - 0.06 in Rain , Thunderstorm Light Rain
5:17 AM 44.6 °F 37.4 °F 44.6 °F 100% 29.85 in 3.0 mi NE 16.1 mph - 0.07 in Rain , Thunderstorm Light Rain
5:19 AM 44.6 °F 37.8 °F 44.6 °F 100% 29.85 in 2.5 mi NE 15.0 mph - 0.07 in Rain , Thunderstorm Light Rain
5:27 AM 44.6 °F 39.7 °F 44.6 °F 100% 29.88 in 2.0 mi ENE 9.2 mph - 0.08 in Rain , Thunderstorm Light Rain
5:36 AM 44.6 °F 40.2 °F 44.6 °F 100% 29.90 in 1.0 mi ENE 8.1 mph - 0.14 in Rain , Thunderstorm Heavy Thunderstorms and Rain
5:53 AM 44.1 °F 36.8 °F 44.1 °F 100% 29.89 in 0.8 mi ENE 16.1 mph - 0.98 in Rain , Thunderstorm Heavy Thunderstorms and Rain
6:04 AM 44.6 °F 37.4 °F 44.6 °F 100% 29.89 in 1.0 mi NE 16.1 mph - 0.53 in Rain , Thunderstorm Heavy Thunderstorms and Rain
6:06 AM 44.6 °F 36.9 °F 44.6 °F 100% 29.88 in 0.8 mi NE 18.4 mph - 0.54 in Rain , Thunderstorm Heavy Thunderstorms and Rain
6:13 AM 44.6 °F 38.4 °F 44.6 °F 100% 29.88 in 3.0 mi ENE 12.7 mph - 0.58 in Rain , Thunderstorm Light Thunderstorms and Rain
6:22 AM 44.6 °F 37.8 °F 44.6 °F 100% 29.88 in 3.0 mi ENE 15.0 mph - 0.58 in Rain , Thunderstorm Light Thunderstorms and Rain
6:23 AM 44.6 °F 37.8 °F 44.6 °F 100% 29.88 in 7.0 mi ENE 15.0 mph - 0.58 in Rain , Thunderstorm Light Rain
6:30 AM 44.6 °F 38.4 °F 44.6 °F 100% 29.86 in 8.0 mi ENE 12.7 mph - 0.58 in Rain Light Rain
6:53 AM 45.0 °F 40.1 °F 45.0 °F 100% 29.88 in 7.0 mi East 9.2 mph - 0.58 in   Overcast
7:51 AM 44.6 °F 37.4 °F 44.6 °F 100% 29.89 in 8.0 mi NE 16.1 mph - 0.01 in   Overcast
7:53 AM 45.0 °F 37.9 °F 45.0 °F 100% 29.90 in 8.0 mi NE 16.1 mph - 0.01 in   Overcast
8:53 AM 45.0 °F 40.1 °F 45.0 °F 100% 29.86 in 7.0 mi ENE 9.2 mph 19.6 mph N/A   Overcast
9:48 AM 44.6 °F 37.8 °F 44.6 °F 100% 29.82 in 6.0 mi East 15.0 mph - N/A   Overcast
9:53 AM 44.1 °F 37.4 °F 44.1 °F 100% 29.84 in 6.0 mi East 13.8 mph - N/A   Overcast
10:53 AM 45.0 °F 38.9 °F 44.1 °F 97% 29.82 in 4.0 mi East 12.7 mph 20.7 mph N/A   Overcast
11:19 AM 44.6 °F 40.7 °F 44.6 °F 100% 29.82 in 4.0 mi East 6.9 mph 16.1 mph N/A Thunderstorm Thunderstorm
11:27 AM 44.6 °F 40.2 °F 44.6 °F 100% 29.83 in 1.8 mi ESE 8.1 mph - 0.01 in Rain , Thunderstorm Heavy Thunderstorms and Rain
11:53 AM 44.1 °F 39.5 °F 44.1 °F 100% 29.83 in 1.2 mi ENE 8.1 mph - 0.34 in Rain , Thunderstorm Heavy Thunderstorms and Rain
12:15 PM 44.6 °F 39.7 °F 44.6 °F 100% 29.82 in 3.0 mi NE 9.2 mph - 0.15 in Rain , Thunderstorm Light Thunderstorms and Rain
12:28 PM 44.6 °F 38.4 °F 44.6 °F 100% 29.83 in 2.5 mi NNE 12.7 mph - 0.15 in Thunderstorm Thunderstorm
12:36 PM 44.6 °F 37.4 °F 44.6 °F 100% 29.83 in 1.8 mi NNE 16.1 mph - 0.15 in   Overcast
12:53 PM 44.1 °F 37.4 °F 44.1 °F 100% 29.85 in 2.5 mi NNE 13.8 mph - 0.15 in   Overcast
1:53 PM 44.1 °F 36.2 °F 44.1 °F 100% 29.85 in 6.0 mi NE 18.4 mph - N/A   Overcast
2:53 PM 44.1 °F 37.1 °F 44.1 °F 100% 29.86 in 10.0 mi NE 15.0 mph - N/A   Overcast
3:53 PM 43.0 °F 34.2 °F 42.1 °F 97% 29.88 in 10.0 mi NNE 20.7 mph - N/A   Overcast
4:53 PM 41.0 °F 31.1 °F 39.9 °F 96% 29.89 in 10.0 mi NE 23.0 mph 29.9 mph N/A   Overcast
5:45 PM 41.0 °F 30.9 °F 39.2 °F 93% 29.88 in 10.0 mi NE 24.2 mph 33.4 mph N/A   Overcast
5:53 PM 41.0 °F 31.1 °F 39.9 °F 96% 29.90 in 10.0 mi NE 23.0 mph 33.4 mph N/A   Overcast
6:53 PM 39.9 °F 31.1 °F 39.0 °F 97% 29.91 in 9.0 mi NE 17.3 mph - 0.00 in   Overcast
7:53 PM 39.9 °F 29.0 °F 39.0 °F 97% 29.91 in 10.0 mi ENE 26.5 mph 34.5 mph 0.00 in   Overcast
8:53 PM 39.9 °F 30.5 °F 39.0 °F 97% 29.92 in 10.0 mi NE 19.6 mph 29.9 mph N/A   Overcast
9:53 PM 39.9 °F 31.8 °F 39.0 °F 97% 29.94 in 9.0 mi ENE 15.0 mph 26.5 mph N/A   Overcast
10:53 PM 39.0 °F 29.9 °F 37.9 °F 96% 29.94 in 10.0 mi ENE 17.3 mph 20.7 mph 0.00 in   Overcast
11:53 PM 37.9 °F 27.6 °F 37.0 °F 97% 29.92 in 10.0 mi ENE 20.7 mph - N/A   Overcast